Brunswick, GA

8:12 AM EDT on April 25, 2017 (GMT -0400)
Glynco Jetport

Weather History for KBQK - December, 2010

Change the Weather History Date:

Sunday, December 19, 2010

  Actual Average Record
Temperature  
Mean Temperature 46 °F -  
Max Temperature 50 °F 64 °F 84 °F (1967)
Min Temperature 41 °F 39 °F 23 °F (1981)
Degree Days  
Heating Degree Days 20    
Moisture  
Dew Point 41 °F    
Average Humidity 92    
Maximum Humidity 100    
Minimum Humidity 72    
Precipitation  
Precipitation 0.00 in - - ()
Sea Level Pressure  
Sea Level Pressure 29.96 in    
Wind  
Wind Speed 6 mph (NNW)    
Max Wind Speed 9 mph    
Max Gust Speed 17 mph    
Visibility 8 miles    
Events      
Averages and records for this station are not official NWS values.
T = Trace of Precipitation, MM = Missing Value Source: NWS Daily Summary

Daily Weather History Graph

Daily Weather History Graph

Search for Another Location

Airport or City:

Trip Planner

Search our weather history database for the weather conditions in past years. The results will help you decide how hot, cold, wet, or windy it might be!

Date:

Astronomy

Dec. 19, 2010 Rise Set
Actual Time 7:19 AM EST 5:26 PM EST
Civil Twilight 6:52 AM EST 5:53 PM EST
Nautical Twilight 6:22 AM EST 6:23 PM EST
Astronomical Twilight 5:52 AM EST 6:53 PM EST
Moon 4:00 PM EST (12/19) 5:39 AM EST (12/19)
Length of Visible Light 11h 00m
Length of Day
10h 07m
Waxing Gibbous, 97% of the Moon is Illuminated
Dec 19
Waxing Gibbous
Dec 21
Full
Dec 27
Last Quarter
Jan 4
New
Jan 12
First Quarter

Hourly Weather History & Observations

Time (EST) Temp. Windchill Dew Point Humidity Pressure Visibility Wind Dir Wind Speed Gust Speed Precip Events Conditions
12:17 AM 43.0 °F 38.8 °F 42.8 °F 99% 29.92 in 7.0 mi NNW 6.9 mph - N/A   Overcast
12:37 AM 42.4 °F 37.0 °F 42.3 °F 99% 29.93 in 7.0 mi North 9.2 mph - N/A   Overcast
12:57 AM 42.3 °F 37.3 °F 42.1 °F 99% 29.92 in 7.0 mi North 8.1 mph - N/A   Overcast
1:17 AM 41.9 °F 37.5 °F 41.9 °F 100% 29.91 in 5.0 mi North 6.9 mph - N/A   Overcast
1:37 AM 41.9 °F 39.0 °F 41.7 °F 99% 29.90 in 5.0 mi NNE 4.6 mph - N/A   Overcast
1:57 AM 41.9 °F 38.2 °F 41.5 °F 99% 29.91 in 7.0 mi North 5.8 mph - N/A   Overcast
2:17 AM 41.9 °F - 41.5 °F 99% 29.90 in 7.0 mi Calm Calm - N/A   Overcast
2:37 AM 41.9 °F 37.5 °F 41.9 °F 100% 29.92 in 7.0 mi NNW 6.9 mph - N/A   Overcast
2:57 AM 41.9 °F 38.2 °F 41.9 °F 100% 29.92 in 10.0 mi NNW 5.8 mph - N/A   Overcast
3:17 AM 42.8 °F 41.1 °F 42.8 °F 100% 29.92 in 5.0 mi NNW 3.5 mph - N/A   Overcast
3:37 AM 41.9 °F 39.0 °F 41.9 °F 100% 29.91 in 3.0 mi NNW 4.6 mph - N/A   Overcast
3:57 AM 41.7 °F 39.8 °F 41.7 °F 100% 29.90 in 5.0 mi North 3.5 mph - N/A   Overcast
4:17 AM 41.9 °F 38.2 °F 41.5 °F 99% 29.90 in 10.0 mi NNW 5.8 mph - N/A   Overcast
4:37 AM 41.7 °F 39.8 °F 41.5 °F 99% 29.91 in 10.0 mi North 3.5 mph - N/A   Overcast
4:57 AM 41.9 °F 40.0 °F 41.7 °F 99% 29.91 in 5.0 mi North 3.5 mph - N/A   Overcast
5:17 AM 41.9 °F 37.5 °F 41.5 °F 99% 29.92 in 4.0 mi NNW 6.9 mph - N/A   Overcast
5:37 AM 41.4 °F 38.4 °F 41.2 °F 99% 29.92 in 5.0 mi North 4.6 mph - N/A   Overcast
5:57 AM 41.2 °F 36.0 °F 41.0 °F 99% 29.92 in 7.0 mi North 8.1 mph - N/A   Overcast
6:17 AM 41.2 °F 35.5 °F 41.0 °F 99% 29.93 in 7.0 mi North 9.2 mph 17.3 mph N/A   Overcast
6:37 AM 41.0 °F 35.8 °F 40.8 °F 99% 29.94 in 10.0 mi North 8.1 mph - N/A   Overcast
6:57 AM 41.2 °F 36.6 °F 41.0 °F 99% 29.94 in 10.0 mi North 6.9 mph - N/A   Overcast
7:17 AM 41.2 °F 38.2 °F 41.0 °F 99% 29.92 in 7.0 mi North 4.6 mph - N/A   Overcast
7:37 AM 41.2 °F 36.0 °F 41.0 °F 99% 29.93 in 5.0 mi NNW 8.1 mph - N/A   Overcast
7:57 AM 41.4 °F 37.6 °F 41.2 °F 99% 29.93 in 7.0 mi NNE 5.8 mph - N/A   Overcast
8:17 AM 41.4 °F 36.8 °F 41.0 °F 99% 29.95 in 7.0 mi NNW 6.9 mph - N/A   Overcast
8:37 AM 41.5 °F 37.8 °F 41.2 °F 99% 29.97 in 7.0 mi NNW 5.8 mph - N/A   Overcast
8:57 AM 41.5 °F 38.6 °F 41.2 °F 99% 29.98 in 7.0 mi NNW 4.6 mph - N/A   Overcast
9:17 AM 41.9 °F 38.2 °F 41.2 °F 97% 29.99 in 7.0 mi NNW 5.8 mph - N/A   Overcast
9:37 AM 41.9 °F 39.0 °F 41.4 °F 98% 30.00 in 5.0 mi NNW 4.6 mph - N/A   Overcast
9:57 AM 42.1 °F 39.2 °F 41.4 °F 97% 30.00 in 7.0 mi NNW 4.6 mph - N/A   Overcast
10:17 AM 42.6 °F 38.4 °F 41.7 °F 97% 30.00 in 7.0 mi NW 6.9 mph - N/A   Overcast
10:37 AM 43.0 °F 38.2 °F 42.1 °F 97% 30.01 in 7.0 mi NW 8.1 mph - N/A   Overcast
10:57 AM 42.4 °F 37.0 °F 41.4 °F 96% 30.01 in 7.0 mi North 9.2 mph - N/A   Overcast
11:17 AM 42.3 °F 36.8 °F 41.0 °F 95% 30.00 in 10.0 mi North 9.2 mph - N/A   Overcast
11:37 AM 42.4 °F 38.1 °F 40.8 °F 94% 29.99 in 10.0 mi NNW 6.9 mph - N/A   Overcast
11:57 AM 43.0 °F 38.8 °F 41.2 °F 93% 29.98 in 10.0 mi NNW 6.9 mph - N/A   Overcast
12:17 PM 43.3 °F 38.1 °F 41.0 °F 91% 29.98 in 10.0 mi NNW 9.2 mph 16.1 mph N/A   Overcast
12:37 PM 43.7 °F 40.3 °F 41.4 °F 91% 29.98 in 10.0 mi NNW 5.8 mph - N/A   Overcast
12:57 PM 44.6 °F 40.2 °F 41.4 °F 88% 29.97 in 10.0 mi NNW 8.1 mph - N/A   Overcast
1:17 PM 45.9 °F 41.7 °F 41.9 °F 86% 29.96 in 10.0 mi NNW 8.1 mph - N/A   Overcast
1:37 PM 46.8 °F - 42.4 °F 85% 29.97 in 10.0 mi NNW 8.1 mph - N/A   Overcast
1:57 PM 48.2 °F - 41.9 °F 79% 29.96 in 10.0 mi North 6.9 mph - N/A   Mostly Cloudy
2:17 PM 48.9 °F - 41.9 °F 77% 29.95 in 10.0 mi NNW 8.1 mph - N/A   Mostly Cloudy
2:37 PM 49.8 °F - 42.3 °F 75% 29.95 in 10.0 mi WNW 6.9 mph - N/A   Mostly Cloudy
2:57 PM 50.2 °F - 42.4 °F 75% 29.95 in 10.0 mi North 8.1 mph - N/A   Scattered Clouds
3:17 PM 50.4 °F - 41.5 °F 72% 29.95 in 10.0 mi NW 5.8 mph - N/A   Mostly Cloudy
3:37 PM 50.0 °F - 41.2 °F 72% 29.96 in 10.0 mi NW 9.2 mph - N/A   Scattered Clouds
3:57 PM 49.6 °F - 41.0 °F 72% 29.97 in 10.0 mi North 8.1 mph - N/A   Scattered Clouds
4:17 PM 47.8 °F - 40.5 °F 76% 29.98 in 10.0 mi NW 8.1 mph - N/A   Scattered Clouds
4:37 PM 47.7 °F - 40.5 °F 76% 29.98 in 10.0 mi NW 4.6 mph - N/A   Mostly Cloudy
4:57 PM 47.3 °F - 40.6 °F 78% 29.98 in 10.0 mi North 3.5 mph - N/A   Overcast
5:17 PM 46.9 °F - 40.5 °F 78% 29.99 in 10.0 mi NNW 5.8 mph - N/A   Overcast
5:37 PM 46.6 °F - 39.6 °F 77% 29.99 in 10.0 mi NNW 3.5 mph - N/A   Overcast
5:57 PM 46.4 °F 45.2 °F 39.2 °F 76% 30.00 in 10.0 mi NW 3.5 mph - N/A   Scattered Clouds
6:17 PM 44.6 °F 43.1 °F 39.0 °F 81% 30.01 in 10.0 mi WNW 3.5 mph - N/A   Clear
6:37 PM 43.5 °F 41.9 °F 39.0 °F 84% 30.00 in 10.0 mi WNW 3.5 mph - N/A   Clear
6:57 PM 42.4 °F - 39.2 °F 88% 30.00 in 10.0 mi Calm Calm - N/A   Clear
7:17 PM 41.0 °F 39.0 °F 39.2 °F 93% 30.02 in 10.0 mi WNW 3.5 mph - N/A   Clear
7:37 PM 41.4 °F 39.4 °F 39.0 °F 91% 30.01 in 10.0 mi WNW 3.5 mph - N/A   Clear
7:57 PM 40.8 °F 38.8 °F 38.8 °F 93% 30.03 in 10.0 mi WNW 3.5 mph - N/A   Clear
8:17 PM 40.3 °F 38.2 °F 38.1 °F 92% 30.04 in 10.0 mi WNW 3.5 mph - N/A   Clear
8:37 PM 40.3 °F 38.2 °F 38.1 °F 92% 30.04 in 10.0 mi NW 3.5 mph - N/A   Clear
8:57 PM 40.1 °F - 37.9 °F 92% 30.05 in 10.0 mi Calm Calm - N/A   Clear
9:17 PM 39.7 °F - 37.9 °F 93% 30.06 in 10.0 mi Calm Calm - N/A   Clear
9:37 PM 38.5 °F - 37.4 °F 96% 30.06 in 7.0 mi Calm Calm - N/A   Clear
9:57 PM 36.7 °F - 36.3 °F 99% 30.05 in 1.8 mi Calm Calm - N/A   Unknown
10:17 PM 36.5 °F - 36.5 °F 100% 30.04 in 0.5 mi Calm Calm - N/A   Unknown
10:37 PM 35.2 °F - 35.4 °F 100% 30.04 in 0.2 mi Calm Calm - N/A   Unknown
10:57 PM 34.0 °F - 34.2 °F 100% 30.04 in 0.5 mi Calm Calm - N/A   Unknown
11:17 PM 33.8 °F - 34.0 °F 100% 30.04 in 0.2 mi Calm Calm - N/A   Unknown
11:37 PM 33.8 °F - 33.8 °F 100% 30.04 in 0.8 mi Calm Calm - N/A   Unknown
11:57 PM 32.0 °F - 32.0 °F 100% 30.06 in 0.8 mi Calm Calm - N/A   Unknown